Weather History for FAUP - May, 2014

Change the Weather History Date:

Thursday, May 1, 2014

  Actual Average Record
Temperature  
Mean Temperature 70 °F -  
Max Temperature 91 °F 73 °F - ()
Min Temperature 48 °F 45 °F - ()
Cooling Degree Days 4    
Growing Degree Days 20 (Base 50)    
Moisture  
Dew Point 29 °F    
Average Humidity 26    
Maximum Humidity 54    
Minimum Humidity 4    
Precipitation  
Precipitation 0.00 in 0.01 in - ()
Sea Level Pressure  
Sea Level Pressure 30.07 in    
Wind  
Wind Speed 4 mph ()    
Max Wind Speed 10 mph    
Max Gust Speed -    
T = Trace of Precipitation, MM = Missing Value Source: Averaged Metar Reports

Daily Weather History Graph

Daily Weather History Graph

Search for Another Location

Airport or City:

Trip Planner

Search our weather history database for the weather conditions in past years. The results will help you decide how hot, cold, wet, or windy it might be!

Date:

Astronomy

May. 01, 2014 Rise Set
Actual Time 7:01 AM SAST 6:02 PM SAST
Civil Twilight 6:37 AM SAST 6:26 PM SAST
Nautical Twilight 6:09 AM SAST 6:54 PM SAST
Astronomical Twilight 5:41 AM SAST 7:22 PM SAST
Moon 8:56 AM SAST (5/1) 7:54 PM SAST (5/1)
Length of Visible Light 11h 49m
Length of Day
11h 00m
Waxing Crescent, 5% of the Moon is Illuminated
May 1
Waxing Crescent
May 7
First Quarter
May 14
Full
May 21
Last Quarter
May 28
New

Hourly Weather History & Observations

Time (SAST) Temp. Dew Point Humidity Pressure Visibility Wind Dir Wind Speed Gust Speed Precip Events Conditions
12:00 AM 53.6 °F 32.0 °F 44% 30.04 in - North 5.8 mph - N/A   Unknown
1:00 AM 53.6 °F 28.4 °F 38% 30.04 in - NNE 3.5 mph - N/A   Unknown
2:00 AM 54 °F 30 °F 27%  in 25 mi North 5.8 mph - -  
2:00 AM 53.6 °F 30.2 °F 41% 30.06 in - North 4.6 mph - N/A   Clear
3:00 AM 50.0 °F 30.2 °F 47% 30.06 in - Calm Calm - N/A   Clear
4:00 AM 53.6 °F 28.4 °F 38% 30.04 in - SE 1.2 mph - N/A   Clear
5:00 AM 50 °F 29 °F 33%  in 25 mi Calm Calm - -  
5:00 AM 50.0 °F 30.2 °F 47% 30.04 in - SE 1.2 mph - N/A   Clear
6:00 AM 48.2 °F 32.0 °F 54% 30.06 in - South 1.2 mph - N/A   Clear
7:00 AM 50.0 °F 32.0 °F 50% 30.09 in - East 1.2 mph - N/A   Clear
8:00 AM 54 °F 33 °F 33%  in 25 mi North 4.6 mph - -   Clear
8:00 AM 53.6 °F 32.0 °F 44% 30.09 in - North 3.5 mph - N/A   Clear
8:13 AM 59.0 °F 30.2 °F 34% 30.12 in - North 3.5 mph - N/A   Clear
8:38 AM 64.4 °F 28.4 °F 26% 30.12 in - NNE 2.3 mph - N/A   Clear
9:00 AM 64.4 °F 30.2 °F 28% 30.12 in - ENE 3.5 mph - N/A   Clear
9:35 AM 69.8 °F 28.4 °F 21% 30.12 in - East 2.3 mph - N/A   Clear
10:00 AM 71.6 °F 30.2 °F 22% 30.12 in - East 2.3 mph - N/A   Clear
10:35 AM 77.0 °F 26.6 °F 16% 30.12 in - East 1.2 mph - N/A   Clear
11:00 AM 78 °F 24 °F 6%  in 25 mi East 2.3 mph - -   Clear
11:00 AM 77.0 °F 24.8 °F 14% 30.09 in - East 2.3 mph - N/A   Clear
12:00 PM 82.4 °F 26.6 °F 13% 30.09 in - NE 4.6 mph - N/A   Clear
1:00 PM 87.8 °F 26.6 °F 11% 30.06 in - North 5.8 mph - N/A   Clear
2:00 PM 90 °F 27 °F 4%  in 25 mi West 9.2 mph - -   Clear
2:00 PM 89.6 °F 26.6 °F 10% 30.04 in - West 8.1 mph - N/A   Clear
3:00 PM 89.6 °F 24.8 °F 10% 30.04 in - West 9.2 mph - N/A   Clear
4:00 PM 89.6 °F 26.6 °F 10% 30.04 in - West 9.2 mph - N/A   Clear
5:00 PM 89 °F 26 °F 5%  in 25 mi West 10.4 mph - -   Clear
5:00 PM 87.8 °F 26.6 °F 11% 30.04 in - West 10.4 mph - N/A   Clear
6:00 PM 82.4 °F 30.2 °F 15% 30.04 in - SW 5.8 mph - N/A   Clear
7:00 PM 73.4 °F 32.0 °F 22% 30.06 in - SSW 3.5 mph - N/A   Clear
8:00 PM 75 °F 35 °F 13%  in 25 mi SSW 2.3 mph - -   Clear
8:00 PM 73.4 °F 33.8 °F 23% 30.06 in - SSW 1.2 mph - N/A   Clear
9:00 PM 68.0 °F 32.0 °F 26% 30.09 in - North 1.2 mph - N/A   Unknown
10:00 PM 59.0 °F 32.0 °F 36% 30.09 in - NW 3.5 mph - N/A   Unknown
11:00 PM 61 °F 32 °F 22%  in - NW 4.6 mph - -  
11:00 PM 60.8 °F 32.0 °F 34% 30.09 in - NW 3.5 mph - N/A   Unknown